Temp
19 18 19 18 18 18 18 18 18 18 18 18 18 18 18 18 18 18 18 18 18 18 18 18 18 18 18 18 18 19 19 19 18 18 19 19 19 19 19 18 18 17 18
20 18 19 18 18 18 18 18 18 18 18 18 18 18 18 18 18 18 18 18 18 18 18 18 18 18 18 18 18 18 19 19 19 19 19 19 19 19 18 18 17 17 18
20 18 19 18 18 18 18 18 18 18 18 19 19 19 19 18 18 18 18 18 18 18 19 19 18 18 18 18 18 18 18 19 19 18 18 18 17 18 18 17 17 17 18
20 19 18 18 18 18 18 18 18 18 18 18 18 18 18 18 18 18 18 18 19 19 19 18 18 18 19 19 18 18 19 19 19 19 19 18 18 19 19 18 18 18 17
20 19 18 18 18 18 18 18 18 18 18 17 18 18 18 18 17 18 18 18 18 18 18 18 18 19 19 19 19 19 19 19 19 19 18 18 18 18 18 19 18 18 18
21 20 19 18 18 18 18 17 18 18 18 17 17 18 18 18 18 18 18 18 18 18 18 18 19 19 19 19 19 19 19 19 19 18 18 18 18 18 18 18 18 18 18
23 19 18 18 18 18 18 18 18 18 18 18 19 19 19 19 18 18 18 19 18 18 18 19 19 19 19 19 19 19 19 19 19 18 19 19 19 18 19 19 18 18 18
23 21 18 18 18 18 18 18 19 19 19 19 19 19 19 19 19 19 19 19 18 18 18 19 19 19 20 19 19 20 19 19 18 19 19 20 19 19 19 19 19 19 19
23 21 19 17 18 18 18 19 19 19 19 19 19 19 19 19 19 19 19 19 19 19 19 19 19 19 20 20 20 20 20 20 20 20 20 21 21 20 20 20 20 19 19
22 22 20 18 18 18 17 20 20 20 19 19 19 19 19 19 19 19 19 20 20 19 19 19 19 20 20 20 20 20 20 20 21 20 20 20 20 20 20 20 20 19 18
21 21 21 19 19 18 18 20 19 19 19 19 19 19 20 19 19 20 20 20 20 20 20 20 20 20 21 21 21 21 21 21 22 22 21 21 20 20 20 19 19 19 18
22 21 21 20 19 19 20 19 19 19 19 19 19 19 20 19 19 20 20 20 20 20 20 20 20 20 20 21 21 21 21 22 22 22 21 20 20 20 20 19 19 19 19
22 22 21 20 20 21 20 20 21 21 20 20 20 19 20 20 20 19 20 20 20 20 20 20 20 21 21 21 21 22 22 22 22 21 21 21 20 19 19 19 19 18 18
22 22 21 20 19 20 20 21 21 21 21 21 20 19 20 20 19 20 20 21 20 21 20 21 21 20 21 21 21 21 22 22 21 21 20 20 19 19 19 18 18 18 18
22 22 21 19 18 18 20 21 21 21 22 21 21 20 20 21 20 21 20 20 21 20 21 21 21 21 21 22 21 21 21 21 21 20 19 19 19 18 18 17 17 17 17
22 22 21 19 19 19 19 19 20 21 21 22 22 20 20 21 20 21 21 21 22 22 21 21 20 21 21 21 21 20 20 20 19 19 18 18 17 17 18 17 17 17 17
22 22 21 20 19 19 19 19 20 21 22 22 22 21 20 20 20 21 22 22 21 22 22 22 21 22 22 22 21 20 19 19 19 19 18 18 18 17 17 17 16 17 17
23 22 21 22 20 19 19 20 21 22 22 23 23 22 21 20 20 21 22 22 21 21 21 22 22 22 22 22 22 21 20 19 19 19 19 18 18 16 17 16 16 16 16
22 21 21 21 20 20 19 20 20 21 21 23 23 23 21 21 21 21 22 22 21 22 22 21 21 21 21 21 22 21 20 20 20 20 19 17 17 17 16 15 15 15 15
22 21 21 21 20 20 20 20 21 22 22 23 23 22 21 22 21 21 22 21 21 23 22 20 20 21 21 21 22 23 20 20 20 19 19 18 16 17 16 15 15 15 14
23 21 21 20 20 19 20 21 22 22 23 23 23 21 21 21 21 21 22 22 22 22 21 20 20 21 22 21 21 23 20 20 20 20 19 18 16 16 15 15 14 14 14
23 22 21 20 20 20 20 21 22 22 23 23 23 21 21 21 21 22 21 21 22 21 21 20 20 20 22 21 21 22 23 22 21 19 18 18 16 16 16 14 14 13 13
24 23 21 20 20 20 21 20 20 20 21 21 22 23 21 22 21 21 21 20 20 22 22 20 20 20 21 22 21 20 21 22 21 20 18 18 17 17 16 15 14 13 13
24 23 22 21 20 20 20 21 21 22 23 23 23 23 22 22 22 22 21 20 20 21 20 20 19 20 20 21 21 21 19 19 19 21 20 18 17 16 15 15 16 15 13
25 24 23 21 21 21 21 21 21 21 22 22 23 22 22 22 22 22 21 21 20 21 20 19 19 20 20 20 20 20 20 21 20 20 20 21 19 17 16 15 15 15 14
26 25 24 22 21 21 20 22 21 21 21 23 22 22 23 24 23 21 21 21 21 20 20 19 19 19 19 18 18 19 20 20 19 19 20 20 20 19 17 16 15 14 14
Height
1535 1534 1534 1535 1536 1537 1538 1538 1538 1539 1539 1539 1540 1540 1541 1542 1542 1542 1542 1543 1543 1544 1545 1545 1545 1545 1544 1544 1543 1543 1544 1544 1544 1544 1545 1546 1546 1547 1547 1548 1549 1550 1550
1536 1536 1535 1537 1538 1539 1539 1540 1540 1541 1541 1541 1542 1542 1542 1543 1544 1544 1545 1545 1545 1546 1546 1547 1547 1546 1545 1544 1544 1544 1544 1544 1545 1545 1545 1546 1546 1547 1548 1549 1550 1549 1551
1536 1537 1537 1538 1539 1541 1542 1543 1543 1544 1544 1544 1544 1544 1545 1545 1546 1546 1546 1546 1547 1547 1548 1548 1547 1547 1545 1544 1544 1544 1544 1544 1545 1546 1546 1547 1546 1548 1549 1550 1551 1551 1552
1538 1539 1541 1540 1541 1543 1544 1545 1545 1546 1546 1546 1546 1546 1547 1547 1547 1547 1548 1548 1548 1548 1548 1548 1548 1547 1546 1546 1545 1544 1544 1544 1545 1546 1546 1549 1550 1549 1549 1550 1550 1551 1552
1537 1540 1540 1542 1543 1544 1546 1547 1547 1547 1548 1548 1548 1548 1549 1549 1549 1549 1549 1549 1548 1548 1548 1547 1547 1547 1546 1546 1545 1544 1544 1544 1544 1545 1547 1548 1548 1548 1549 1549 1549 1550 1552
1535 1540 1541 1543 1544 1545 1547 1548 1549 1549 1549 1549 1550 1550 1550 1550 1550 1550 1550 1550 1549 1548 1548 1547 1547 1546 1546 1545 1544 1544 1543 1543 1543 1544 1547 1547 1549 1546 1548 1548 1549 1549 1550
1539 1540 1541 1543 1545 1546 1548 1549 1549 1549 1550 1551 1551 1551 1551 1552 1552 1552 1551 1551 1549 1548 1547 1547 1546 1546 1546 1544 1543 1542 1542 1542 1542 1545 1546 1547 1546 1546 1546 1546 1546 1547 1548
1541 1544 1543 1544 1546 1547 1549 1550 1550 1551 1552 1552 1553 1553 1553 1554 1553 1553 1552 1551 1550 1548 1546 1547 1547 1546 1545 1544 1543 1542 1541 1540 1542 1542 1543 1544 1545 1545 1544 1544 1544 1544 1544
1543 1545 1546 1547 1548 1549 1550 1551 1552 1553 1554 1554 1555 1555 1555 1555 1555 1554 1553 1553 1551 1550 1549 1548 1547 1546 1545 1544 1543 1542 1541 1541 1540 1543 1543 1545 1543 1543 1542 1541 1541 1541 1542
1544 1547 1549 1549 1552 1553 1552 1553 1554 1555 1556 1556 1556 1556 1556 1557 1557 1556 1555 1554 1553 1551 1550 1548 1547 1546 1545 1544 1544 1543 1542 1540 1538 1537 1541 1543 1542 1541 1539 1538 1539 1539 1540
1546 1548 1550 1551 1553 1555 1555 1555 1556 1557 1558 1558 1558 1559 1558 1560 1560 1559 1557 1555 1553 1552 1550 1549 1548 1547 1545 1545 1545 1544 1541 1539 1541 1542 1541 1539 1539 1538 1537 1537 1537 1537 1537
1545 1548 1550 1552 1553 1555 1558 1557 1560 1560 1561 1562 1561 1560 1562 1560 1559 1558 1558 1556 1555 1553 1551 1550 1549 1548 1546 1545 1543 1542 1540 1541 1541 1541 1538 1538 1538 1536 1535 1534 1534 1533 1533
1545 1548 1550 1553 1554 1557 1558 1560 1561 1562 1563 1562 1561 1561 1561 1561 1560 1556 1557 1556 1556 1553 1554 1550 1549 1549 1549 1547 1545 1543 1542 1539 1539 1536 1536 1536 1535 1533 1532 1532 1531 1530 1529
1545 1548 1551 1553 1554 1557 1559 1561 1562 1563 1564 1563 1563 1563 1562 1560 1560 1559 1559 1558 1555 1556 1554 1552 1552 1550 1548 1545 1545 1543 1541 1540 1539 1535 1535 1535 1533 1531 1530 1529 1528 1527 1527
1545 1548 1550 1551 1553 1555 1558 1561 1563 1563 1564 1564 1565 1563 1564 1563 1562 1561 1559 1556 1557 1554 1554 1553 1552 1550 1546 1546 1544 1542 1541 1538 1539 1535 1534 1533 1532 1530 1528 1526 1525 1524 1523
1546 1548 1550 1551 1552 1554 1558 1560 1563 1564 1565 1566 1566 1565 1564 1564 1562 1562 1560 1557 1558 1557 1555 1554 1550 1549 1546 1544 1544 1541 1540 1538 1538 1539 1533 1532 1530 1529 1527 1525 1523 1523 1522
1547 1549 1551 1553 1554 1556 1559 1561 1563 1565 1565 1566 1566 1565 1565 1564 1563 1562 1562 1558 1558 1557 1555 1552 1549 1549 1546 1541 1541 1539 1539 1539 1538 1538 1537 1533 1530 1528 1527 1524 1523 1522 1522
1547 1549 1552 1555 1556 1557 1561 1563 1565 1566 1567 1567 1567 1567 1566 1565 1564 1562 1560 1559 1557 1555 1553 1552 1550 1548 1546 1543 1541 1540 1540 1539 1538 1538 1538 1537 1536 1528 1528 1526 1524 1523 1523
1546 1549 1552 1555 1558 1559 1561 1564 1564 1566 1567 1568 1568 1567 1565 1565 1565 1562 1562 1560 1557 1556 1555 1553 1551 1548 1545 1543 1541 1537 1538 1539 1540 1538 1537 1535 1536 1532 1528 1527 1525 1524 1523
1546 1549 1552 1554 1557 1559 1562 1562 1565 1566 1567 1568 1568 1566 1566 1566 1566 1564 1562 1560 1558 1557 1556 1554 1551 1548 1545 1543 1540 1537 1538 1538 1538 1537 1536 1536 1534 1534 1532 1528 1525 1523 1522
1545 1547 1551 1553 1555 1558 1561 1563 1564 1565 1566 1567 1567 1566 1566 1567 1566 1565 1563 1562 1560 1557 1555 1554 1550 1548 1545 1543 1541 1539 1536 1536 1536 1537 1536 1535 1533 1532 1530 1530 1528 1527 1521
1544 1546 1548 1551 1553 1555 1559 1562 1563 1565 1565 1566 1566 1565 1566 1566 1566 1565 1564 1562 1559 1556 1554 1553 1550 1548 1546 1543 1542 1539 1536 1536 1535 1534 1534 1533 1530 1531 1530 1529 1527 1525 1524
1541 1545 1547 1549 1552 1554 1557 1560 1561 1563 1563 1565 1565 1564 1564 1565 1565 1565 1563 1562 1560 1558 1557 1554 1551 1549 1546 1544 1541 1541 1538 1537 1535 1532 1531 1531 1529 1530 1529 1528 1526 1524 1523
1538 1543 1546 1547 1549 1551 1554 1558 1559 1561 1562 1563 1563 1563 1564 1564 1564 1564 1563 1561 1560 1558 1557 1554 1551 1548 1546 1545 1544 1542 1540 1539 1538 1534 1530 1527 1526 1526 1525 1527 1526 1523 1522
1535 1539 1543 1545 1547 1549 1550 1553 1556 1557 1559 1560 1562 1561 1562 1562 1563 1563 1563 1561 1560 1559 1556 1553 1550 1548 1548 1546 1545 1542 1541 1539 1536 1535 1531 1529 1526 1525 1526 1526 1525 1524 1522
1532 1535 1539 1542 1543 1546 1548 1550 1552 1555 1556 1558 1559 1560 1561 1562 1562 1561 1561 1561 1560 1558 1556 1554 1550 1549 1547 1546 1543 1543 1542 1540 1538 1536 1533 1530 1527 1525 1524 1525 1525 1524 1523
Wind_Speed
11 11 11 10 8 9 9 8 8 8 7 7 6 6 7 6 6 6 6 6 5 6 7 7 8 8 8 7 6 5 1 0 0 1 2 3 3 6 6 8 8 6 3
14 13 12 11 8 9 8 8 7 7 6 7 7 7 7 6 6 6 5 5 4 3 4 5 7 8 9 9 7 6 4 2 1 1 2 5 4 1 5 8 7 10 4
15 13 12 10 9 8 8 7 7 7 8 8 8 7 6 5 4 4 3 4 4 4 3 3 5 5 6 7 7 5 4 3 2 2 5 4 7 4 1 4 8 4 3
16 12 10 10 9 8 9 7 7 9 10 9 9 8 7 8 7 7 6 6 6 5 3 2 3 5 6 6 5 4 3 1 1 2 5 2 1 3 4 3 4 4 4
17 13 12 11 10 9 9 8 7 9 9 9 9 9 9 8 7 7 6 5 3 2 1 2 3 4 4 4 4 3 3 1 2 2 2 3 3 8 8 4 4 4 3
22 18 10 12 10 9 11 9 8 9 9 9 8 8 7 6 6 5 6 6 5 4 4 3 3 4 5 7 7 5 3 3 4 3 5 6 6 10 10 9 6 6 7
16 11 13 12 10 10 10 7 8 9 9 8 7 7 6 6 6 7 6 8 7 5 4 5 5 5 6 8 8 8 8 5 3 7 7 6 10 10 12 9 9 9 9
13 14 11 12 11 10 10 8 9 9 9 8 8 7 6 7 6 6 7 9 11 11 8 3 2 4 5 4 6 9 5 5 5 8 7 7 9 16 14 11 8 9 12
14 12 11 11 12 11 9 10 10 10 10 9 9 7 8 10 10 8 8 8 11 11 11 9 8 6 4 6 9 8 7 5 5 4 5 6 13 13 11 12 12 11 12
13 13 12 11 10 9 10 12 13 13 12 10 10 10 10 12 12 11 8 10 10 11 11 10 9 7 6 6 10 9 9 6 8 7 5 7 13 13 10 9 11 13 12
13 12 12 11 11 12 8 13 15 14 13 11 10 12 12 5 5 5 6 9 9 10 10 11 10 9 8 9 13 13 9 5 6 5 7 9 15 15 11 10 10 12 13
13 12 11 11 10 12 10 10 8 5 9 7 6 8 4 6 8 7 7 11 11 13 13 12 13 12 12 10 10 12 10 8 6 6 10 12 16 14 13 12 12 13 15
14 12 12 11 11 12 10 11 9 8 7 7 9 10 6 6 7 5 7 10 7 12 8 10 7 8 7 7 6 7 8 7 7 4 9 14 17 13 12 13 12 13 15
13 12 11 11 12 10 11 11 11 8 7 7 2 5 7 9 9 9 7 7 8 6 9 8 7 8 9 8 9 8 7 6 7 9 9 11 12 10 9 9 11 12 14
13 12 12 11 11 11 14 11 9 7 4 3 4 5 3 5 5 7 5 4 8 9 7 9 9 9 9 9 9 8 6 7 4 9 9 11 14 14 11 6 6 8 10
13 12 11 10 10 14 8 10 8 5 2 5 4 4 6 5 6 4 6 8 7 8 8 8 8 10 10 10 12 6 3 7 5 6 11 11 11 10 14 7 6 5 7
12 12 11 11 10 13 9 8 6 3 5 2 1 2 4 6 5 6 6 7 6 7 9 9 12 11 10 11 9 9 6 8 8 9 9 14 13 10 14 9 10 9 8
13 13 12 10 11 10 8 7 5 4 4 2 2 2 5 5 6 6 5 7 7 14 7 13 11 11 10 10 10 8 10 7 9 8 7 4 5 7 13 8 10 10 10
13 13 13 12 11 10 8 5 5 5 4 1 1 2 6 4 4 2 5 7 8 9 9 12 12 10 12 9 10 7 9 6 5 7 5 6 5 6 10 9 12 11 14
14 14 13 13 12 10 6 7 6 5 4 3 2 2 4 5 4 6 6 10 11 10 10 12 12 13 11 11 9 6 1 4 4 5 7 4 4 4 3 7 11 15 15
15 15 14 13 12 10 7 7 6 6 4 4 3 2 3 3 5 6 8 9 10 11 10 12 13 13 10 11 11 8 1 2 4 5 5 4 4 4 2 5 3 4 14
17 16 15 14 13 11 8 8 8 6 4 5 4 3 3 3 5 6 8 10 13 9 5 13 13 11 10 10 13 10 7 3 2 2 3 3 5 3 3 5 5 6 6
19 18 17 16 14 12 12 9 8 7 7 3 5 3 4 4 4 5 7 9 12 12 12 11 11 10 10 11 12 8 7 10 11 3 3 2 5 4 3 6 4 7 9
20 18 17 17 17 14 14 11 11 9 8 6 6 5 4 4 3 4 5 9 10 10 14 10 10 9 11 11 9 9 6 6 6 9 6 7 5 6 5 4 5 11 7
22 20 18 18 18 17 14 15 12 10 8 7 6 8 2 4 2 1 5 8 9 10 12 12 10 10 8 8 9 7 7 6 6 10 12 11 8 3 3 6 5 5 7
23 22 20 19 19 18 17 14 16 13 12 10 9 7 4 4 3 3 4 6 9 10 10 9 9 9 10 10 6 8 7 8 8 10 12 12 11 8 5 5 5 6 6
Wind_Direction
142 154 133 123 114 102 108 110 113 105 101 102 98 107 103 108 102 109 97 87 75 84 89 74 59 51 44 45 47 33 356 319 141 60 82 77 112 133 133 124 109 143 148
146 148 143 132 123 106 102 103 100 97 88 86 84 89 97 91 85 91 88 79 72 85 108 73 50 41 41 45 45 40 45 36 37 49 63 64 43 76 129 129 148 173 201
141 153 145 132 116 111 116 114 112 115 101 102 99 92 88 96 93 97 79 62 76 98 107 64 41 36 23 20 36 41 48 60 55 61 94 82 244 343 221 165 177 185 196
137 144 150 134 129 121 118 114 101 110 107 100 90 96 81 79 82 82 81 80 85 92 87 40 2 7 5 18 14 16 51 62 114 122 106 116 136 286 320 220 199 204 194
142 147 169 142 132 126 128 119 116 114 104 101 102 96 96 95 88 78 73 68 61 52 15 332 334 343 341 347 1 7 336 333 239 224 127 230 249 263 289 285 240 220 192
141 139 148 138 125 121 131 127 126 132 123 109 103 96 90 82 71 59 41 18 354 328 305 306 308 314 325 327 325 312 282 271 280 268 266 259 246 263 271 272 257 247 222
131 127 141 132 132 120 112 125 130 127 120 104 96 91 84 76 64 47 32 26 10 339 282 278 292 307 325 326 323 304 289 286 291 263 265 248 285 251 275 271 260 251 244
124 136 135 138 134 128 120 117 117 117 109 103 95 86 71 54 40 45 48 44 42 38 63 72 342 339 335 354 9 9 338 305 273 299 255 309 234 265 268 260 257 250 246
132 131 131 137 131 122 131 122 121 116 108 98 84 68 59 55 49 60 60 48 47 49 55 49 33 19 5 346 349 352 352 343 313 245 257 266 257 278 275 254 257 258 256
133 127 137 132 126 120 119 120 116 111 97 85 83 76 72 54 46 46 48 41 39 36 33 29 21 6 355 5 355 341 333 340 355 232 281 256 256 274 274 265 255 257 260
142 139 135 141 136 136 128 117 112 100 87 78 66 70 45 69 60 40 31 8 14 14 25 25 22 19 15 4 347 349 351 10 321 297 287 252 275 282 272 266 260 253 254
145 141 145 135 139 129 140 109 125 90 80 116 115 74 62 43 44 52 33 29 29 33 18 10 18 26 16 349 323 324 336 327 308 295 266 264 284 288 277 272 268 264 261
147 146 143 148 136 130 141 126 118 111 92 84 71 97 57 81 49 81 37 20 12 12 11 351 359 6 355 351 342 331 315 308 312 316 277 292 294 288 276 272 274 272 271
151 151 148 150 146 148 142 132 137 126 112 114 58 60 12 51 39 21 30 39 14 2 18 7 358 345 344 341 347 345 339 347 351 320 311 310 308 306 304 284 271 271 271
155 156 156 157 152 161 145 156 151 132 110 110 78 5 51 44 33 31 1 28 28 5 17 5 355 350 331 354 353 356 0 357 5 341 338 328 336 348 343 332 299 281 269
160 162 168 161 162 154 146 159 156 146 141 90 88 33 41 56 32 359 17 4 20 10 18 359 5 351 355 332 360 341 18 9 35 27 2 350 344 3 354 353 339 322 301
163 163 171 165 165 163 166 159 162 205 140 123 58 80 32 43 0 30 356 23 5 13 7 348 355 350 353 350 15 8 40 30 14 21 31 2 344 14 4 48 67 58 49
162 162 164 161 169 166 169 178 176 206 160 145 34 27 16 3 6 6 336 11 3 14 3 358 351 350 353 345 332 354 338 30 6 36 10 22 6 2 358 45 38 40 36
163 164 163 165 168 175 192 180 182 204 163 184 359 11 354 18 8 43 18 2 14 5 6 355 349 353 346 2 348 8 25 4 356 346 27 34 45 2 353 19 13 7 7
165 168 168 169 178 183 195 183 182 199 200 230 276 339 4 23 10 3 358 360 2 349 344 354 348 355 347 351 334 296 286 1 359 17 2 21 32 58 51 23 359 360 355
174 173 178 178 186 183 197 188 192 193 198 226 254 324 356 348 351 340 354 348 348 338 346 350 352 355 1 349 342 336 243 47 49 20 7 357 8 11 41 34 27 37 349
186 184 184 189 191 191 195 198 207 213 217 224 227 286 289 328 336 338 347 353 345 353 2 2 345 358 355 351 358 340 338 218 312 1 336 356 347 355 346 351 15 10 7
193 194 193 191 199 197 186 206 215 216 223 243 246 285 168 313 321 327 344 352 3 359 353 354 351 358 358 2 6 12 349 347 331 286 315 295 338 274 294 323 341 344 356
196 199 200 198 197 204 203 203 214 212 217 224 221 240 263 273 276 331 345 352 359 14 348 357 350 13 5 359 1 355 6 338 346 331 299 285 318 348 259 273 302 329 2
196 197 202 205 205 199 221 198 220 215 219 220 220 239 228 253 233 250 340 353 357 10 345 355 7 18 11 4 355 351 338 325 298 318 314 314 305 283 304 313 299 313 333
200 199 200 204 209 210 214 218 210 211 209 206 221 219 218 219 278 232 343 354 355 3 346 355 9 6 9 359 0 354 343 335 326 324 319 314 319 305 310 296 300 321 336